BEIDOU 3 (C01)

Last updated on Jan. 20, 2020, 4:32 a.m. UTC

1 36287U 10001A   20019.53035535 -.00000289  00000-0  00000-0 0  9999
2 36287   1.3725  14.6392 0002405 146.3117 288.3726  1.00273184 36714
UTC
Height (km)
Latitude
Longitude
Inclination
Orbital Period
UTC large
Height (km)
Speed (km/s)
/
Latitude / Longitude
Inclination (degrees)
Orbital Period (minutes)
Azimuth
Elevation
Range (km)
Doppler Factor
iOS Compass Heading
iOS Angle

Next 30 passes for location: Hong Kong

Rise time Rise Azimuth (degrees) Set time Set Azimuth (degrees) Duration Max altitude (degrees)

No matching passes for this satellites